Theta_e
312 316 317 317 318 317 315 314 315 315 312 313 315 314 314 314 312 313 311 304 303 307 308 309 309 309 310 310 310 310 310 309 309 309 309 309 308 308 307 306 303 301 302 302 300 299 297 295 294 293 293 293 293 293 292 293 292 292 292 291 290 290 290 289 289 289 289 290 290 290 290 290 289 288 288 287 287 287 287 287 286 286 286 285 285 285
311 316 318 318 317 315 314 312 311 311 310 311 314 314 314 314 313 312 309 304 303 306 309 309 309 310 310 310 310 310 311 310 310 310 309 309 310 309 309 307 304 302 302 301 300 299 297 295 294 293 292 292 292 292 292 292 292 292 292 291 290 290 289 290 290 289 289 290 290 290 290 289 288 288 287 287 287 286 286 286 286 285 285 285 285 285
314 316 317 317 314 311 309 307 307 309 310 310 312 313 313 313 313 311 308 305 304 306 310 310 309 310 310 310 310 310 311 311 311 311 311 311 311 310 310 308 305 303 301 300 299 298 296 295 294 292 292 292 292 292 292 292 292 292 291 291 291 290 289 289 289 289 289 289 289 289 289 288 287 287 287 287 287 286 286 286 285 285 285 285 285 285
315 315 313 311 310 309 307 304 306 309 309 311 312 312 313 314 313 311 309 305 305 307 308 309 309 310 310 310 311 311 310 310 309 310 310 311 311 311 310 308 305 303 302 300 298 297 296 295 294 292 292 292 292 292 292 292 292 292 291 291 291 290 290 289 289 289 289 288 288 288 287 287 287 287 286 286 286 286 285 285 285 285 285 285 285 284
316 313 306 306 308 311 310 305 306 310 311 312 312 313 314 315 313 312 310 306 307 308 306 308 310 311 314 314 313 311 308 308 307 306 308 309 310 310 309 307 305 304 303 300 299 297 296 295 294 293 292 292 292 292 292 292 292 292 291 291 291 290 290 289 289 289 288 288 288 287 287 287 287 287 287 286 287 286 286 285 285 285 285 285 284 284
316 308 305 309 309 310 312 308 309 312 313 312 312 313 313 313 313 312 310 309 310 312 308 310 312 312 316 317 314 312 310 311 310 309 311 310 309 308 306 305 305 304 303 301 299 298 296 295 295 293 292 291 292 292 292 292 292 292 292 291 291 290 290 289 289 288 288 288 287 287 288 288 288 288 288 288 287 287 286 285 285 284 284 284 284 284
314 304 305 313 312 311 313 311 312 311 312 313 312 313 312 310 311 311 310 310 312 313 310 310 312 313 314 312 313 314 313 313 314 313 314 312 311 310 306 305 305 303 303 302 301 298 296 296 295 293 292 291 292 292 292 292 292 292 292 291 291 290 290 289 289 288 288 288 287 287 288 288 288 288 288 287 286 285 285 285 285 284 284 285 284 284
313 306 306 311 312 312 312 313 314 310 311 315 311 310 311 309 310 310 310 310 311 311 309 309 311 313 313 312 312 314 312 313 313 313 314 313 313 312 308 306 305 304 303 302 302 299 297 296 295 294 293 292 291 291 292 292 292 292 292 292 291 290 290 289 289 288 288 287 287 287 287 287 287 287 287 286 285 284 285 284 284 285 285 285 284 284
312 312 311 310 310 311 312 314 314 310 313 313 306 305 307 308 309 309 310 310 309 309 310 311 311 312 314 313 312 311 312 313 312 313 314 314 315 314 310 307 306 305 304 302 302 300 298 297 296 294 293 292 291 291 291 291 292 292 292 292 291 290 290 289 289 288 288 287 287 287 286 286 286 286 285 285 284 284 284 284 284 284 284 284 284 283
311 308 309 311 311 313 313 309 307 312 313 307 303 305 305 306 307 307 308 309 308 309 312 312 311 312 313 314 311 309 311 313 313 313 313 314 316 315 311 308 306 305 304 303 301 300 299 298 296 294 293 292 291 291 291 291 291 292 291 291 291 290 289 289 288 288 288 287 286 286 286 286 286 285 285 284 283 283 283 283 283 284 283 283 283 283
307 302 305 310 311 311 309 302 300 307 308 304 305 308 308 307 305 305 307 308 310 313 314 313 312 312 312 314 313 311 311 312 313 313 313 314 315 314 311 308 306 304 303 302 301 300 299 298 296 294 293 292 290 290 290 291 291 291 291 291 290 290 289 289 288 288 287 286 286 286 286 285 285 285 284 283 283 283 282 283 283 283 282 282 282 282
309 306 307 310 309 306 307 304 301 301 302 304 308 310 312 311 308 307 307 308 311 315 312 311 313 312 312 313 312 312 312 311 313 313 313 314 315 316 315 310 306 304 303 300 299 298 298 296 295 294 293 291 290 290 290 290 291 291 291 290 290 289 289 288 288 287 287 286 286 286 285 285 284 284 283 283 283 283 282 282 282 282 281 282 282 281
313 311 310 310 307 306 310 310 305 302 302 306 309 310 314 315 312 312 312 311 313 315 311 308 310 311 312 312 311 312 312 311 312 312 314 315 315 319 321 313 306 303 301 299 297 297 296 295 294 293 293 291 290 290 290 290 290 290 290 290 289 289 288 288 287 287 287 286 286 285 285 284 284 283 282 282 282 282 282 281 281 281 281 281 281 281
314 313 310 310 308 307 310 312 311 308 305 306 310 312 314 315 314 315 313 311 312 314 310 305 308 311 310 311 312 312 311 312 312 312 317 317 316 319 319 312 304 300 298 298 297 296 295 294 294 293 292 291 290 290 290 290 290 290 290 289 289 288 288 287 287 287 286 286 285 285 285 284 283 282 282 281 282 281 281 281 280 280 280 280 280 280
314 315 310 311 312 309 309 312 315 312 306 307 310 312 314 314 313 313 311 310 312 313 310 306 309 312 310 311 313 312 311 313 312 314 317 316 315 314 310 305 302 299 297 297 296 296 295 294 294 293 292 291 290 290 290 290 289 289 289 289 289 288 287 287 287 286 286 286 285 285 284 283 282 281 281 281 281 281 281 280 280 280 280 279 279 279
313 315 314 311 310 309 310 313 314 311 308 307 308 310 313 313 312 311 312 312 310 312 312 309 310 312 311 312 314 314 313 312 312 314 314 313 312 310 306 304 301 298 297 296 296 295 295 294 294 293 292 291 290 290 290 289 289 289 289 289 289 288 287 287 286 286 286 285 285 284 283 282 281 281 281 281 281 281 281 280 280 280 279 279 278 278
312 313 313 308 307 305 305 308 309 311 311 307 307 310 311 311 311 311 313 311 308 310 313 312 312 312 311 312 312 313 312 311 311 312 311 312 312 310 309 306 302 299 298 296 295 295 294 294 294 293 292 291 291 290 290 289 289 289 289 288 288 288 287 286 286 286 285 285 284 283 282 281 281 282 281 281 281 281 280 280 280 279 279 278 278 277
314 313 312 309 310 304 299 302 306 307 308 307 308 311 309 308 310 310 312 312 311 313 314 313 313 312 311 313 312 311 311 310 311 311 310 310 310 310 310 308 304 302 300 296 295 294 294 293 293 293 292 291 291 290 290 289 289 288 288 288 288 287 286 286 286 285 285 284 283 281 281 281 281 282 281 281 281 280 280 280 279 279 278 278 277 277
316 314 313 308 307 303 298 303 307 304 304 305 305 307 308 310 311 310 311 312 313 314 314 313 313 312 311 312 312 311 311 311 311 311 310 309 308 309 309 308 305 303 300 297 295 294 293 293 293 292 292 291 291 290 289 289 288 288 288 288 288 287 286 286 285 285 284 283 281 281 281 281 281 281 281 281 281 281 280 280 279 278 277 277 277 276
314 314 314 306 302 303 302 305 309 307 304 303 303 304 305 308 311 311 310 311 312 313 314 315 315 314 313 313 313 313 313 313 312 311 311 309 308 309 307 305 304 302 300 298 295 293 293 293 293 292 292 291 290 290 289 289 288 288 287 287 287 286 286 286 285 284 283 282 281 281 281 281 281 281 281 282 281 281 280 279 278 278 277 276 276 276
313 313 314 307 301 305 306 306 310 310 306 303 305 306 305 305 308 308 308 309 311 312 313 314 314 313 313 314 314 313 313 313 313 312 313 312 310 309 308 305 303 302 300 298 295 294 293 292 293 292 291 291 290 289 289 288 288 287 287 287 286 286 285 285 284 283 282 281 281 281 281 281 281 281 282 281 281 280 280 279 278 277 277 276 276 275
313 313 314 311 307 308 310 309 311 312 310 307 306 307 307 307 308 309 310 310 310 312 313 313 314 313 313 316 314 312 313 314 314 315 315 314 312 309 307 305 304 303 301 299 296 295 293 292 292 292 291 290 290 289 289 288 287 287 287 286 286 285 285 284 283 282 282 282 281 281 281 281 281 282 282 281 280 280 279 279 278 277 276 276 275 275
315 315 314 314 313 311 308 306 305 308 311 310 308 309 309 309 309 311 312 312 310 311 311 312 313 313 314 317 315 314 315 314 317 319 316 314 313 310 307 305 303 302 301 299 296 295 293 292 292 292 291 290 290 289 288 287 287 287 286 286 285 285 284 283 283 282 282 282 282 281 281 281 282 282 281 281 280 280 279 278 277 277 276 275 274 274
315 316 314 314 314 312 306 301 300 302 307 309 308 308 309 308 310 311 311 310 311 311 311 311 312 313 314 317 315 314 317 317 317 319 317 316 314 311 309 305 302 301 299 298 296 294 293 292 291 291 290 290 290 289 288 287 287 287 286 285 285 284 284 283 282 282 282 282 281 281 282 282 282 282 281 281 280 279 279 278 277 276 275 274 274 273
313 316 315 314 315 314 310 306 304 303 304 307 307 307 308 309 309 310 309 308 310 312 311 312 313 313 314 317 315 312 314 315 313 312 312 313 313 311 310 306 302 299 298 297 296 293 292 291 291 290 290 290 289 288 288 287 287 286 286 285 284 284 283 282 282 282 282 282 281 281 282 282 282 281 281 280 280 279 279 278 277 276 274 274 273 273
314 316 314 313 313 314 313 312 310 307 304 306 307 306 307 309 309 309 309 309 311 312 311 311 313 312 312 315 314 312 312 312 310 309 308 308 308 308 307 305 302 299 298 297 295 293 292 291 290 290 290 290 289 288 288 287 287 286 285 284 284 283 282 282 282 282 282 281 281 281 281 281 281 281 280 280 279 279 279 277 276 275 274 273 273 273
315 316 313 312 313 312 312 313 312 310 306 306 307 307 307 309 309 310 310 311 312 311 311 312 312 312 312 312 311 312 312 311 310 310 310 309 307 305 304 304 303 300 298 296 295 293 292 291 291 290 290 290 289 288 288 287 286 286 284 284 283 283 282 281 281 281 281 280 280 281 281 281 281 281 279 279 278 278 278 277 276 275 274 274 273 273
314 315 312 312 312 311 312 311 311 311 309 307 308 308 307 308 310 311 311 311 312 311 311 313 313 313 313 311 311 312 311 311 311 311 311 310 309 306 304 305 305 301 299 298 296 295 294 292 291 290 290 290 289 288 287 287 286 285 284 283 282 282 281 281 281 280 280 280 280 280 281 281 280 279 278 278 278 278 278 277 276 275 275 274 274 273
313 314 313 313 313 311 311 310 310 311 310 309 309 309 308 309 310 311 311 311 312 312 312 312 313 313 312 311 311 311 311 311 311 310 310 310 310 308 306 307 306 304 302 300 298 296 295 293 291 290 289 289 289 288 287 286 285 284 283 282 281 281 280 281 280 279 279 279 280 280 281 280 279 278 278 278 277 277 277 276 276 276 275 275 274 273
312 312 313 312 312 312 312 311 311 311 310 310 310 310 310 309 310 310 311 311 311 311 312 312 312 313 312 311 311 311 311 311 310 310 310 309 309 309 308 308 308 308 306 302 299 297 295 293 292 291 289 289 289 288 287 286 285 284 283 281 280 280 280 280 280 279 279 279 279 280 280 279 278 277 277 277 277 277 276 275 275 275 275 274 274 273
310 310 311 311 312 312 312 311 311 310 310 310 310 310 310 309 309 310 310 310 310 311 310 311 311 311 311 310 311 310 310 310 310 309 309 309 309 309 309 309 308 309 309 305 301 298 296 293 292 291 289 288 288 288 287 286 285 283 282 281 280 279 279 279 279 279 278 278 279 279 278 277 277 277 276 276 276 276 275 275 275 274 274 273 273 272
310 310 310 310 312 313 311 311 311 310 310 310 310 310 310 309 309 310 310 310 310 310 310 311 311 311 310 310 310 310 310 309 309 309 309 309 309 309 309 308 308 308 308 307 305 301 297 294 292 291 289 289 288 288 286 285 284 283 281 280 279 278 278 278 278 278 278 278 278 278 277 276 276 276 276 275 275 275 275 274 273 273 273 272 271 271
310 311 311 311 312 313 312 312 311 311 313 313 311 311 310 310 310 310 311 311 311 311 311 311 311 310 310 310 310 310 310 310 310 309 309 309 309 309 309 308 308 308 308 308 308 303 298 295 293 291 290 289 288 287 286 285 283 282 281 280 279 278 277 277 278 278 277 277 277 277 276 276 276 275 275 275 274 274 273 273 272 272 271 270 270 270
310 311 311 312 313 313 313 312 312 313 314 314 312 312 311 310 311 311 311 311 311 310 311 311 311 310 311 311 311 311 311 310 310 310 309 309 309 309 309 308 308 308 308 308 308 305 300 296 293 291 290 289 288 287 285 284 283 282 281 279 278 277 277 277 276 276 276 276 276 276 275 275 275 275 274 274 273 273 272 272 271 271 270 269 268 268
311 311 311 312 312 313 313 312 313 315 314 313 312 311 310 310 310 311 311 311 310 310 311 311 311 311 311 311 311 311 311 310 310 309 309 309 309 308 308 308 308 309 309 308 307 304 300 296 293 291 290 288 287 285 284 283 282 281 279 278 277 276 276 276 276 275 275 275 275 275 275 275 274 274 273 273 272 272 271 271 270 269 268 268 267 267
311 311 311 311 312 312 312 313 315 315 312 311 311 310 310 310 310 311 312 311 310 310 310 310 310 310 310 310 310 310 309 309 309 308 308 308 308 308 308 308 308 308 308 308 307 304 299 295 292 291 289 287 286 284 283 282 281 280 278 277 276 276 276 275 275 274 274 274 274 274 275 275 274 273 272 272 271 271 270 269 269 268 268 268 267 267
311 311 311 312 312 313 312 312 314 314 312 311 312 311 310 311 310 312 313 312 310 309 309 309 309 309 309 310 309 309 309 308 308 308 308 309 309 309 308 308 308 308 307 305 303 301 297 293 291 290 288 286 284 283 282 281 280 279 276 275 275 275 275 274 274 273 273 273 274 274 274 274 273 273 272 271 271 270 269 268 268 267 267 267 267 266
310 310 311 312 313 313 313 313 313 314 313 313 312 311 311 311 311 311 311 311 310 309 309 309 309 309 309 309 309 308 308 309 309 309 308 309 309 309 308 307 307 306 304 301 297 295 293 291 290 288 286 284 282 282 281 280 279 277 275 274 274 273 274 273 273 273 273 273 274 274 274 274 273 272 272 271 271 270 268 268 267 266 266 267 267 266
310 310 310 312 313 313 314 314 314 314 314 313 312 311 310 311 311 310 311 311 310 309 309 309 309 309 309 309 308 308 309 309 309 309 309 309 309 308 308 308 305 300 297 295 294 293 290 288 287 285 284 283 281 280 280 279 277 276 274 274 273 273 273 273 273 273 273 273 274 274 274 273 272 272 271 271 270 269 268 268 267 266 266 267 266 265
310 310 310 312 312 312 313 314 314 313 313 313 312 310 310 311 311 310 311 312 310 309 309 309 309 309 309 308 308 309 309 309 309 309 309 307 307 306 305 304 301 296 292 291 291 290 288 286 285 284 282 281 280 279 278 277 276 275 274 273 273 273 273 273 273 274 273 273 273 273 273 272 272 271 271 270 269 268 268 268 266 266 267 267 266 265
311 311 311 312 312 312 313 314 313 313 313 313 312 311 311 311 310 311 312 312 309 309 310 309 309 309 309 308 308 308 309 308 308 310 307 303 303 302 298 295 293 292 290 289 288 286 285 283 283 283 282 280 279 278 277 276 276 275 274 273 273 273 274 273 273 273 273 273 273 273 272 271 271 270 270 270 268 267 268 267 266 266 268 267 266 265
312 312 312 313 313 312 312 313 313 313 313 312 311 310 309 310 311 311 311 310 309 310 310 310 310 309 308 308 308 308 308 308 309 309 306 302 301 300 294 289 289 288 287 287 285 284 283 282 282 281 280 279 278 276 276 276 276 275 273 273 274 273 273 273 273 273 272 272 272 272 271 270 270 270 270 269 268 268 268 267 266 267 268 267 266 266
313 313 313 313 313 313 313 314 314 315 314 312 311 310 308 310 312 311 310 310 311 311 310 310 310 309 308 308 308 308 308 308 308 308 306 302 299 297 292 289 289 288 286 285 284 283 282 282 281 280 279 277 276 275 276 276 275 274 273 274 273 272 272 272 273 273 272 272 272 271 270 270 269 269 270 268 268 268 268 267 267 268 268 267 266 265
313 314 313 312 312 313 314 314 314 314 312 311 311 310 309 309 310 310 310 311 311 310 310 309 309 309 308 308 307 307 307 307 307 307 305 302 298 295 291 289 288 287 285 284 283 283 282 281 280 278 276 275 274 275 276 276 275 273 273 273 272 271 271 272 272 272 272 272 271 271 270 269 269 269 269 268 268 268 268 267 268 268 267 267 265 265
313 313 313 312 312 313 313 313 312 311 310 310 311 310 309 309 309 310 310 310 310 310 310 309 309 309 308 307 307 307 306 306 306 305 305 303 299 295 291 289 287 286 284 283 282 281 281 280 278 276 274 274 274 274 275 275 275 273 272 271 270 271 272 272 272 272 272 271 271 270 269 269 269 269 268 267 268 268 268 268 268 268 267 266 265 265
313 312 312 312 312 312 312 311 311 310 310 310 310 310 310 310 309 309 310 310 310 310 309 309 309 308 308 308 307 307 306 305 305 305 304 303 301 296 293 290 288 285 283 282 281 280 280 278 276 274 273 273 273 273 274 275 275 274 271 270 270 272 273 273 272 272 271 271 270 269 269 269 268 268 267 267 267 268 267 267 268 268 266 265 264 265
313 312 313 313 313 313 313 312 311 311 311 311 310 310 310 309 309 309 309 309 309 309 309 309 309 308 308 308 307 306 305 305 305 305 304 304 302 298 294 291 287 284 283 282 281 279 278 277 275 274 273 272 272 272 273 273 274 273 272 271 271 272 273 273 272 271 270 269 269 268 268 269 268 267 266 267 267 267 267 267 268 267 266 264 265 266
312 313 313 313 313 312 313 312 312 312 311 310 312 313 311 309 309 308 308 308 308 308 308 308 308 308 308 307 306 305 305 305 305 305 304 303 301 298 295 291 287 284 282 281 279 277 277 276 275 274 273 272 271 271 272 272 272 272 271 271 272 272 273 272 272 271 269 268 268 267 268 268 267 266 266 266 267 267 266 267 267 267 265 264 265 265
311 311 311 312 312 312 311 312 312 312 312 311 312 314 313 310 309 309 309 308 308 308 307 307 307 307 306 306 305 305 306 306 305 305 304 303 301 298 294 290 287 284 281 280 278 276 276 276 275 273 272 271 270 270 270 270 270 269 269 271 272 273 272 271 270 269 268 267 267 267 267 267 267 267 267 267 267 267 266 266 267 267 266 265 265 266
308 309 310 311 311 310 311 312 313 313 312 312 311 312 312 311 310 309 309 309 308 307 307 307 307 306 306 306 305 306 306 306 305 304 304 303 301 298 294 290 286 283 281 279 277 275 275 275 274 273 272 270 269 269 269 268 268 267 268 270 272 273 272 271 268 266 265 266 266 267 267 267 266 266 267 267 267 267 266 266 267 267 266 265 266 267
305 307 309 310 310 310 310 311 312 311 311 310 310 310 311 310 309 308 308 308 308 307 307 307 307 306 307 306 305 305 305 304 304 304 304 303 300 297 293 289 286 283 281 278 276 275 275 274 273 272 271 269 268 268 267 266 265 265 266 269 271 272 273 271 268 265 264 265 267 267 267 267 266 266 266 267 267 266 266 267 267 267 266 266 266 267
Wind_Speed
1 4 5 9 10 8 9 12 9 2 0 2 2 4 8 8 10 11 2 5 3 5 10 15 16 17 20 20 20 21 14 13 18 18 18 15 11 11 13 11 10 13 12 11 14 17 20 23 26 26 28 34 35 35 35 34 33 31 29 28 25 24 22 21 19 17 16 12 10 9 7 6 6 6 6 5 7 7 8 9 9 9 9 10 10 11
1 6 11 13 9 2 4 7 5 2 2 4 5 5 7 8 9 9 1 4 5 3 8 12 15 17 19 20 21 21 18 18 20 18 19 18 14 12 13 11 10 11 8 9 12 14 19 22 26 30 31 35 35 35 37 36 35 33 31 29 26 25 24 21 19 18 17 15 12 10 8 8 7 6 6 5 7 8 9 9 9 10 10 11 11 12
3 10 13 5 3 6 4 2 4 4 4 3 4 4 6 6 6 7 1 3 4 4 7 9 13 17 18 20 23 22 17 16 18 17 18 18 16 15 11 8 9 10 9 11 12 14 18 21 26 29 31 34 34 35 39 38 36 35 32 29 26 26 26 23 21 20 17 16 15 12 10 10 8 7 8 8 8 9 10 10 10 10 10 11 12 12
4 8 7 3 7 6 3 3 5 3 3 5 4 4 8 4 2 5 1 2 4 6 8 11 12 14 15 17 20 18 11 10 13 15 16 16 17 16 8 6 9 12 12 12 13 14 17 20 24 26 27 30 30 33 40 39 37 38 34 30 28 27 26 24 24 21 18 16 15 13 12 11 10 9 9 9 9 11 10 10 10 10 11 12 13 13
9 4 1 5 5 6 3 4 7 5 4 7 7 8 10 6 6 8 2 4 6 6 4 9 12 11 8 8 10 6 2 5 7 10 13 14 14 12 6 6 10 12 12 13 14 15 16 19 23 24 25 28 28 32 41 41 39 39 37 33 30 28 27 26 24 21 18 17 14 12 11 10 9 9 9 9 9 10 9 9 10 11 12 13 14 14
10 3 4 4 3 4 5 5 7 8 5 5 8 13 14 9 8 7 3 5 7 4 1 5 10 8 4 5 5 2 2 4 3 6 11 12 9 8 7 8 10 12 11 12 14 15 16 19 21 22 23 28 29 31 39 42 41 40 38 35 32 29 27 26 23 21 19 17 14 12 9 7 7 7 7 8 9 9 10 11 11 12 12 13 14 15
3 1 2 3 5 6 6 6 7 9 5 5 4 7 10 9 7 6 2 3 5 4 0 3 7 9 2 6 5 3 4 6 5 7 11 11 8 8 9 9 10 11 11 11 13 14 15 18 19 21 26 30 30 31 36 42 42 41 39 36 33 31 28 26 24 22 20 17 15 13 10 9 8 7 7 9 11 12 12 14 13 13 13 14 15 16
3 4 2 4 5 6 6 6 7 11 6 3 1 2 4 5 5 5 4 5 5 4 2 3 7 11 8 8 9 7 8 9 11 13 12 12 10 9 9 10 11 11 11 11 12 14 15 17 20 24 27 30 32 34 37 41 42 41 40 37 34 31 28 27 25 23 21 18 16 15 13 12 11 11 10 10 13 14 14 15 14 13 14 15 16 16
3 5 7 8 6 6 7 2 6 13 7 1 2 2 4 4 3 4 4 6 4 4 5 7 9 10 9 7 7 8 10 10 13 15 15 14 11 9 9 11 12 11 11 11 12 13 14 17 22 24 25 29 34 37 38 41 42 41 40 37 35 32 29 27 26 24 22 19 17 16 15 13 13 14 13 12 13 14 15 15 14 14 15 16 17 17
2 3 4 7 7 6 4 3 2 8 5 2 4 4 5 3 3 2 4 4 3 4 7 8 10 8 9 5 7 2 6 10 12 12 13 13 8 6 8 10 11 9 9 10 11 12 13 16 20 21 22 26 31 36 38 39 41 40 39 38 35 33 31 29 27 25 23 21 19 18 18 16 14 14 13 12 13 14 14 14 14 15 16 16 17 18
2 2 2 3 4 2 5 5 3 1 2 5 5 3 3 2 2 1 2 1 5 7 8 13 16 12 9 2 9 6 6 10 11 9 10 10 7 7 8 8 9 9 8 9 9 9 10 13 16 18 20 22 26 31 34 36 39 40 40 38 36 34 32 31 29 26 24 22 21 21 21 21 18 17 15 13 13 13 13 14 14 15 16 17 17 18
3 2 2 2 1 4 6 5 4 3 2 4 3 1 1 2 2 2 2 2 6 7 4 8 12 14 11 4 7 7 5 8 10 9 9 11 9 7 7 7 8 8 7 8 8 9 10 11 14 18 20 21 23 27 29 32 37 40 40 39 36 34 34 32 30 27 24 23 23 23 23 22 20 19 18 16 14 13 13 14 14 14 15 16 16 16
3 5 3 2 0 3 5 4 3 2 2 3 3 3 3 4 2 3 3 4 7 6 2 3 3 8 14 10 7 7 5 7 9 8 9 10 9 7 7 7 6 6 7 8 8 9 10 11 12 16 20 21 24 27 28 31 36 39 39 39 37 35 34 33 31 28 25 24 24 24 24 23 22 20 19 17 15 14 13 13 13 13 13 14 14 15
3 1 5 5 2 4 9 8 4 4 6 8 7 6 5 4 2 5 5 3 5 4 2 5 2 6 9 9 13 18 15 13 10 9 10 9 8 6 4 5 5 6 7 7 8 9 10 11 12 16 21 22 25 29 30 33 39 40 39 38 36 35 35 34 32 28 26 25 25 25 25 23 21 19 18 17 15 15 14 13 13 13 13 14 15 16
5 5 6 8 3 8 15 11 3 5 7 8 5 3 5 5 4 6 5 5 6 6 2 4 2 5 4 2 7 14 15 14 11 10 9 7 6 2 1 2 4 6 7 6 7 9 10 11 13 16 19 21 24 29 31 35 41 41 40 39 36 36 36 34 32 29 26 26 26 26 25 23 20 18 17 16 15 15 14 13 14 14 14 15 16 17
6 8 4 4 0 9 12 5 4 6 5 4 2 2 5 5 5 4 4 2 3 7 5 5 4 7 3 2 1 3 6 10 10 10 9 8 8 4 2 5 6 6 7 7 7 9 9 11 13 15 17 18 20 24 28 34 40 42 41 38 35 37 38 34 32 30 27 27 26 25 24 22 20 19 17 16 15 14 13 12 13 13 14 15 16 16
4 4 4 3 2 4 3 1 2 1 3 5 3 5 3 1 3 5 4 1 1 7 8 4 7 9 5 5 5 6 6 8 8 10 11 10 10 7 5 7 8 7 7 7 7 7 8 10 12 15 17 18 20 23 27 32 39 42 43 39 35 37 38 34 32 30 27 27 25 24 23 21 20 19 17 16 14 12 12 12 13 13 14 14 15 15
4 3 3 4 1 1 2 2 2 3 1 5 4 5 2 2 1 3 3 1 3 8 7 6 12 13 9 6 4 7 8 9 10 11 10 9 9 7 7 9 9 7 6 7 7 7 8 9 12 15 18 20 22 24 25 28 34 38 41 40 37 38 38 35 32 29 27 26 25 23 22 21 20 18 16 14 12 11 11 11 12 13 13 14 14 15
2 3 3 2 2 4 1 2 3 1 2 1 2 1 1 2 3 3 3 4 6 7 7 12 18 15 10 7 3 8 11 12 13 10 7 9 10 7 9 11 9 5 5 6 7 7 8 10 12 16 18 19 21 22 22 26 31 35 38 39 38 38 37 34 31 28 27 26 24 23 22 21 19 17 14 11 10 10 10 11 11 12 13 13 13 13
2 4 3 1 1 3 3 4 6 5 2 1 1 2 1 2 3 3 3 3 5 7 7 13 17 12 6 5 6 10 12 12 12 9 8 11 12 9 9 10 6 5 6 7 7 8 9 10 12 16 18 18 20 21 21 26 32 33 34 37 37 36 34 33 31 29 27 25 24 23 22 20 17 14 12 10 9 9 10 11 12 12 13 13 13 12
2 3 4 1 0 2 5 8 10 10 8 6 5 6 4 2 0 2 3 2 3 6 6 8 13 12 2 4 6 9 10 10 9 8 8 9 9 9 8 8 7 7 8 8 7 8 9 10 12 15 17 17 18 19 22 27 30 29 32 35 36 35 34 33 31 29 27 26 24 23 21 18 16 13 10 9 9 9 10 11 12 12 13 13 13 12
3 4 6 4 3 5 7 6 5 5 7 9 9 9 9 7 4 3 6 4 2 6 8 7 10 13 4 4 3 5 6 7 7 8 7 6 8 9 9 9 9 8 9 9 8 8 8 8 10 14 16 17 19 20 23 26 27 29 32 34 35 36 35 33 31 29 28 27 25 23 20 17 15 12 10 9 9 9 10 10 11 12 13 13 12 11
4 2 6 8 6 6 3 0 2 4 2 3 4 6 8 8 8 8 8 6 3 6 10 6 8 12 4 4 2 3 4 4 5 7 7 5 7 8 9 9 7 7 8 8 7 7 7 8 10 13 16 18 20 21 23 25 27 29 31 34 36 36 35 34 32 31 29 28 26 23 20 17 14 12 10 9 9 9 9 10 11 12 12 12 11 11
2 1 5 7 6 4 0 3 1 2 1 4 6 7 8 9 10 8 4 3 2 6 10 5 6 12 4 3 4 5 3 3 3 5 6 5 5 7 8 8 7 8 8 7 7 6 6 7 9 11 13 17 19 20 22 24 26 27 29 34 36 36 35 34 32 32 30 28 26 23 20 17 14 12 11 9 9 8 9 10 11 11 10 11 11 11
3 4 5 5 6 6 4 3 3 3 5 5 6 8 10 11 11 4 2 1 4 12 15 7 8 13 4 2 6 2 2 4 5 2 3 4 4 5 6 6 7 8 8 8 8 7 8 9 10 10 12 15 18 20 22 24 25 26 30 35 37 35 35 34 33 32 31 28 26 23 20 17 15 13 11 9 8 8 9 9 10 10 10 10 11 12
5 5 6 8 9 8 10 10 4 4 7 5 3 7 11 14 14 8 4 6 10 15 15 9 11 14 9 8 12 4 2 6 5 3 3 5 5 6 5 5 6 7 8 10 9 9 9 9 10 11 12 15 17 19 21 23 24 26 29 34 37 36 35 34 33 33 31 29 26 23 20 18 15 13 10 9 8 8 8 9 9 10 10 11 12 13
4 5 11 15 15 13 15 15 5 6 7 7 7 9 12 15 18 12 8 11 10 6 9 13 17 17 15 19 23 15 8 9 8 5 5 7 7 7 6 6 7 7 7 8 8 8 9 10 12 13 13 15 17 19 21 23 25 27 29 32 36 37 36 35 34 33 31 28 25 23 21 18 16 13 11 9 8 8 8 9 9 11 11 12 12 13
3 6 13 19 20 18 19 22 18 8 8 10 9 11 13 15 17 16 16 17 9 1 8 18 21 19 16 20 27 25 17 15 15 12 12 10 7 7 7 8 10 10 8 9 9 10 11 12 13 14 13 15 18 19 21 22 24 27 30 33 35 37 37 36 35 33 30 28 26 23 21 18 16 13 11 9 8 8 8 8 9 10 11 11 12 13
3 7 11 15 19 19 19 24 26 20 14 11 11 12 13 15 19 22 23 20 12 10 16 20 21 19 15 20 28 25 17 15 17 17 17 15 8 5 7 10 11 10 11 12 11 11 13 13 12 14 14 15 18 21 22 22 23 26 29 33 36 37 37 37 35 33 30 28 26 24 21 18 16 13 11 10 8 7 8 8 8 9 9 10 11 12
2 6 10 13 16 17 19 23 25 22 19 18 17 14 14 19 22 20 18 18 19 21 22 21 22 20 18 23 25 18 14 15 16 17 19 20 17 13 12 14 15 14 10 11 12 13 13 14 13 13 14 15 18 22 24 23 25 27 28 32 36 37 37 37 35 33 31 28 25 24 21 18 16 14 11 9 8 7 7 7 7 7 8 9 10 12
4 8 11 12 12 14 19 24 25 23 21 20 18 15 19 25 22 18 18 20 20 21 21 20 20 18 20 23 20 16 18 19 19 21 22 23 23 19 16 17 20 20 12 9 12 13 12 13 13 13 15 17 19 23 25 24 26 27 27 32 36 37 37 37 35 32 30 27 25 23 21 18 16 13 11 10 8 8 7 6 6 5 7 8 10 11
5 8 10 10 9 12 17 22 23 22 20 15 12 18 26 26 20 19 21 20 17 18 20 18 15 15 18 19 17 19 23 22 21 22 23 22 20 15 14 17 20 21 16 11 11 11 12 13 14 16 17 17 19 24 25 25 26 26 28 33 37 38 37 36 34 32 29 27 25 23 21 18 16 13 11 10 9 8 6 5 4 4 6 7 9 10
5 6 7 8 8 11 17 20 17 14 12 9 14 24 28 24 22 25 25 23 22 19 16 13 12 15 17 18 19 21 21 20 19 20 22 22 18 14 16 19 19 19 18 18 14 10 12 13 14 16 16 16 21 26 27 29 29 28 32 37 38 38 38 35 33 31 28 26 25 23 20 18 16 13 12 10 9 7 5 4 3 3 5 6 7 8
7 7 7 6 7 11 15 14 11 9 11 14 17 20 23 26 29 29 26 26 23 17 14 13 16 20 20 20 22 21 18 19 20 20 23 21 15 15 18 20 19 19 21 20 14 9 10 10 10 12 14 17 21 23 26 30 31 30 35 39 39 38 38 35 32 30 28 26 25 23 20 18 16 14 12 10 8 6 4 2 2 3 4 5 6 7
9 10 9 6 6 9 9 8 9 12 13 14 12 14 21 27 30 29 28 26 21 17 18 21 23 24 23 23 24 21 19 19 18 22 27 22 14 14 17 19 20 20 20 18 12 8 7 8 8 9 12 17 21 24 25 28 31 34 37 39 39 38 37 35 32 30 28 26 24 22 20 18 16 14 12 10 8 6 3 2 2 3 4 5 6 7
12 11 8 6 7 7 5 8 11 8 4 3 7 13 19 20 21 24 24 22 18 16 20 23 24 24 26 28 26 21 19 16 15 22 27 18 10 13 16 18 19 18 16 13 10 9 7 8 10 12 15 20 25 29 29 31 36 39 38 38 39 38 36 34 31 29 27 26 24 23 21 19 17 15 12 10 8 5 3 1 1 2 3 5 6 8
17 12 8 8 9 8 8 11 11 7 3 4 9 14 15 16 19 19 17 14 12 15 21 23 23 24 27 29 25 20 16 11 10 21 22 10 11 15 16 16 16 14 10 6 5 6 7 11 14 15 19 24 29 32 34 37 41 42 39 37 37 37 35 33 30 28 27 27 26 24 22 19 17 15 13 10 8 5 2 1 1 2 3 5 7 8
18 16 12 10 9 9 11 10 9 9 8 11 16 18 17 18 15 10 9 8 8 17 26 24 23 25 25 25 23 18 13 8 10 19 15 7 13 13 12 10 9 7 5 2 2 3 5 10 15 18 24 28 30 34 39 42 44 44 40 37 36 35 33 30 29 29 28 28 27 24 22 20 17 15 13 10 7 4 2 1 1 2 3 5 7 9
22 17 14 13 9 9 10 9 9 11 9 11 18 22 24 22 9 2 6 7 11 23 30 24 23 25 23 23 21 14 9 8 12 17 9 7 10 9 7 6 5 4 3 4 6 6 8 12 17 21 26 27 27 34 42 45 47 45 40 37 37 34 28 27 29 31 30 28 27 24 22 19 16 14 12 9 6 4 2 0 1 2 3 5 7 9
20 13 11 13 11 11 13 11 8 9 5 8 17 21 20 13 7 5 9 10 17 28 28 22 25 24 22 22 18 11 10 12 13 15 8 6 5 5 5 5 5 7 6 5 8 11 14 18 20 20 21 23 28 38 45 47 47 43 39 38 36 30 26 29 33 32 30 28 26 23 21 18 16 13 11 8 6 3 1 1 2 3 4 5 7 9
13 11 12 14 12 14 17 13 9 9 6 9 17 18 9 9 9 11 14 12 18 24 20 19 23 21 20 19 13 10 14 15 15 15 7 5 4 4 4 3 4 6 6 6 11 16 17 18 18 18 20 27 34 40 46 48 44 39 38 36 30 26 30 34 33 31 29 27 25 23 20 17 14 12 9 7 5 3 2 1 2 3 5 6 8 10
8 8 10 12 11 12 13 12 12 11 7 13 19 14 10 11 9 13 15 16 19 19 15 15 17 16 16 16 12 13 16 15 16 15 10 8 8 6 6 7 6 6 5 7 13 16 15 12 13 16 22 31 39 42 45 43 38 36 36 31 25 27 33 34 32 31 29 26 24 22 18 15 13 10 8 6 4 3 1 1 2 3 5 7 9 12
10 8 8 9 9 10 11 10 10 8 9 19 22 12 10 14 15 13 16 18 17 16 15 15 15 14 14 13 13 15 16 16 16 15 13 11 9 7 8 9 8 7 8 8 11 16 16 12 11 17 24 33 40 44 44 39 34 34 34 27 25 31 34 32 32 31 28 26 24 20 17 15 12 9 7 5 4 3 1 1 2 4 6 7 9 11
11 9 7 7 9 9 10 10 11 11 12 20 21 14 14 20 20 18 19 17 13 13 14 12 13 15 15 15 15 16 15 15 16 14 11 9 7 7 8 8 8 8 8 7 10 18 18 11 10 18 27 36 43 46 45 41 37 35 31 27 29 33 34 33 33 31 28 27 24 20 18 15 12 9 7 5 4 3 2 0 2 4 6 8 8 7
14 15 14 12 11 11 11 10 10 10 11 15 18 19 21 24 23 22 21 16 13 13 12 11 13 15 15 16 16 14 13 14 15 14 10 7 7 7 8 8 8 8 8 8 10 17 21 19 17 19 23 33 42 41 39 40 40 33 27 28 33 36 36 36 34 31 30 27 24 21 19 15 12 9 7 6 4 3 2 1 2 4 6 7 6 5
12 16 17 14 12 13 14 13 11 12 15 17 19 21 23 23 20 18 18 17 15 14 11 11 12 13 13 12 11 10 12 14 15 14 11 8 7 7 7 7 8 9 9 10 11 16 22 25 22 17 16 25 36 36 34 39 42 36 32 34 37 39 39 38 35 33 30 28 25 23 19 16 13 11 8 7 5 4 3 1 3 5 6 5 3 5
7 11 12 11 13 14 12 11 14 18 19 18 17 19 21 20 16 14 15 16 17 17 16 15 15 14 12 8 7 9 13 14 14 13 11 9 8 7 8 8 9 10 11 11 15 20 21 18 16 13 12 18 30 36 36 37 38 38 39 41 41 40 40 38 36 34 31 29 27 24 20 17 15 12 10 8 7 5 4 2 4 6 4 2 3 5
5 6 6 8 11 12 12 11 13 17 18 16 13 12 13 15 17 17 17 16 17 19 19 18 17 16 13 10 10 13 15 15 15 13 11 9 7 7 8 9 9 10 10 11 19 25 19 12 14 17 14 16 30 39 38 35 35 39 42 43 42 41 40 37 36 34 32 30 28 25 22 19 17 15 13 10 8 8 6 4 4 5 2 2 4 6
4 4 5 7 9 10 13 14 14 15 18 18 15 10 8 11 14 15 15 15 16 17 18 18 17 15 15 15 15 16 16 16 16 15 12 10 9 9 9 10 9 10 10 12 20 25 19 13 16 16 13 21 35 41 38 37 38 40 42 43 43 42 40 37 35 34 32 30 28 25 23 20 18 16 14 11 10 8 6 4 3 4 2 2 4 7
8 9 8 8 9 9 11 12 11 10 13 15 15 13 10 9 10 11 12 13 14 16 18 18 17 17 16 16 16 16 16 16 17 16 13 11 12 11 10 10 8 9 10 12 17 19 17 21 26 21 18 29 42 43 40 40 40 40 42 44 44 43 40 38 35 32 30 29 28 26 24 21 18 16 14 13 11 8 6 5 2 1 1 2 6 8
11 13 11 10 12 12 12 11 7 6 9 11 13 14 11 9 11 12 11 11 13 14 14 14 15 16 16 14 13 13 14 16 17 16 13 13 13 11 11 11 11 11 10 12 15 14 14 22 28 23 22 34 45 44 41 42 41 40 42 44 44 43 41 40 38 33 29 29 28 26 25 22 19 17 14 12 11 9 8 7 4 2 2 2 6 8
Wind_Direction
259 227 226 238 234 217 202 210 226 265 63 234 249 244 253 259 264 269 248 128 168 242 248 248 254 259 266 268 269 273 260 238 248 249 254 258 249 245 239 223 204 217 227 209 196 186 181 186 189 190 190 191 192 193 194 193 196 198 198 198 197 197 198 196 195 196 195 192 193 198 196 194 201 220 234 247 253 260 268 273 280 285 291 295 302 309
223 231 239 242 238 193 179 203 193 160 176 221 238 249 256 251 260 273 281 134 157 228 254 253 263 262 260 267 267 266 258 252 257 255 258 261 256 250 237 221 210 217 216 190 186 178 177 183 187 191 191 190 190 191 193 194 196 197 198 199 197 198 199 197 196 197 197 196 194 192 194 199 208 225 230 232 245 258 266 271 277 281 289 295 301 306
217 239 247 243 108 86 75 152 180 195 196 209 229 252 264 259 276 283 261 125 158 222 272 272 276 272 263 261 261 260 254 253 261 259 260 263 260 256 239 213 207 212 210 196 192 181 178 180 184 189 191 190 190 191 193 195 196 197 198 198 198 200 201 200 201 200 200 203 204 202 207 214 219 230 236 235 244 257 262 265 272 279 286 293 298 300
214 249 259 86 114 135 93 119 173 185 195 208 212 234 252 253 290 272 252 102 192 227 285 290 281 271 260 255 254 256 254 257 266 262 260 258 255 260 252 201 201 211 212 199 193 187 182 181 182 187 189 189 189 190 193 195 196 197 197 197 198 199 201 202 204 204 203 207 212 214 220 229 232 240 247 249 255 258 261 266 272 279 284 290 294 296
235 242 99 93 139 173 151 155 181 197 216 217 214 227 247 250 237 249 316 345 258 227 269 293 286 265 235 239 254 254 228 252 264 259 259 254 245 253 253 205 209 217 209 193 191 189 185 185 187 188 186 187 189 193 195 196 196 198 199 199 199 199 201 203 204 204 205 208 213 218 225 237 243 246 248 251 252 251 257 264 269 276 282 287 290 294
248 209 126 124 131 174 182 193 199 202 219 231 221 224 239 256 253 254 346 344 291 245 204 326 307 282 170 181 244 249 236 246 226 230 252 254 235 226 230 217 216 221 208 193 191 188 186 188 187 185 184 189 193 196 197 197 198 199 200 201 200 200 201 203 203 204 206 208 210 212 213 221 230 233 231 233 237 241 253 261 267 275 282 286 289 294
243 110 124 165 157 174 205 234 204 185 216 248 219 215 231 248 260 263 279 283 279 274 57 22 303 284 195 180 212 215 251 255 240 237 246 250 232 210 214 207 210 215 204 199 194 185 186 186 184 186 189 193 195 197 198 198 199 200 201 203 202 201 201 201 203 205 207 208 209 209 210 216 224 229 231 237 247 255 263 268 274 281 286 289 291 295
147 121 138 171 168 183 216 244 187 171 207 247 145 134 184 202 222 227 229 240 267 307 290 192 239 273 268 217 221 233 244 258 262 260 259 253 238 219 209 197 206 210 195 195 192 186 187 185 187 191 193 195 197 198 198 198 199 200 202 204 203 201 201 202 203 206 208 208 210 213 216 223 231 236 238 245 255 261 267 272 278 284 288 291 293 296
118 159 173 167 177 203 213 234 158 175 203 294 100 115 122 139 174 182 216 248 273 310 266 205 200 265 271 203 209 244 238 246 255 253 256 256 242 224 211 200 208 209 193 193 191 187 188 188 191 193 192 195 198 199 199 198 199 200 202 204 203 201 200 201 203 207 209 210 212 214 215 220 229 238 241 244 252 260 266 274 280 284 288 292 295 299
75 209 196 164 185 213 184 60 131 193 203 115 125 101 88 91 99 154 236 257 263 266 250 200 177 246 276 177 151 198 221 232 246 245 247 253 246 224 213 204 202 200 194 194 192 190 190 190 190 188 189 193 197 201 200 199 200 201 202 203 201 199 199 201 203 205 209 211 213 213 214 217 223 231 237 239 246 254 261 270 277 283 287 291 296 300
93 25 325 204 205 181 111 79 31 11 114 132 148 113 109 139 105 159 244 249 263 257 225 202 191 214 268 187 150 169 186 205 224 235 244 250 247 226 211 201 193 190 188 186 187 187 185 185 183 183 187 189 193 198 198 199 201 201 202 202 199 197 198 199 201 204 207 210 212 214 217 220 222 226 230 233 239 247 255 265 275 281 286 291 297 301
156 172 222 222 140 97 106 97 56 46 112 155 163 143 229 229 163 193 188 164 247 258 196 196 195 202 237 237 157 171 175 200 219 226 240 245 239 221 200 191 187 181 176 175 181 180 175 178 180 183 187 184 185 192 195 198 200 200 200 199 195 195 197 198 199 202 205 208 211 213 217 220 222 224 228 231 236 242 252 262 271 277 284 291 294 296
196 201 167 107 6 165 153 130 91 93 176 191 176 168 240 263 244 232 223 189 234 259 145 128 157 215 241 249 222 216 212 218 225 230 246 250 238 218 193 179 176 170 171 176 179 178 178 181 181 184 185 180 183 189 191 196 200 200 200 197 194 194 194 195 197 200 203 207 210 212 215 218 220 223 226 230 235 241 249 256 264 270 276 282 283 282
227 247 139 163 238 190 181 186 194 184 179 188 182 180 211 229 240 247 243 232 251 260 158 130 152 246 259 255 231 229 229 222 219 228 242 250 244 233 190 158 160 174 182 182 180 180 184 186 182 184 185 182 185 188 189 194 199 199 198 196 194 193 193 194 196 198 201 205 209 212 214 216 218 220 223 228 234 240 247 253 261 269 273 276 280 283
238 268 173 175 177 166 188 205 178 121 160 188 181 187 221 209 213 247 261 270 286 295 233 155 190 244 260 287 215 218 225 219 215 224 231 242 253 266 62 152 175 188 193 187 188 191 189 188 185 185 188 188 189 187 187 192 197 197 196 194 192 191 192 193 195 196 199 203 207 210 212 213 214 216 220 226 232 239 247 255 263 272 275 277 282 287
237 267 165 147 298 163 180 200 103 106 154 181 112 191 236 218 205 248 290 277 311 308 266 183 221 248 244 302 217 181 220 213 215 228 224 232 236 210 225 232 206 199 199 193 198 199 193 189 188 189 192 194 194 190 188 192 195 195 194 191 189 191 191 192 194 196 198 201 204 207 209 210 212 214 217 223 231 241 249 257 264 273 278 280 282 285
230 269 125 105 313 170 174 3 123 191 178 149 162 201 221 334 212 233 267 111 99 279 266 214 247 265 264 245 198 166 207 208 214 229 221 227 230 210 225 237 218 205 199 199 203 198 190 190 193 194 194 194 194 194 193 194 195 195 193 188 186 189 190 191 193 194 196 198 201 204 206 207 210 212 215 221 231 242 251 260 269 277 282 283 283 285
222 262 175 158 171 145 338 359 79 338 32 139 191 203 133 35 283 242 263 263 229 254 268 268 268 273 271 259 171 158 206 218 221 227 220 230 236 220 232 241 229 209 192 200 206 197 191 193 196 199 199 198 197 197 196 195 195 195 193 189 185 186 188 188 191 192 195 196 197 199 201 203 207 210 214 221 232 243 254 265 271 278 282 283 284 287
197 254 228 167 113 113 124 228 138 4 321 146 257 229 126 211 186 178 227 246 245 248 269 278 279 277 257 246 187 175 201 219 227 224 216 230 232 220 234 245 236 208 197 208 206 200 197 198 200 201 200 199 198 197 194 193 195 194 193 191 189 187 187 188 190 192 194 195 194 195 198 200 203 208 213 222 236 248 261 271 274 278 281 282 285 286
163 240 239 77 34 120 147 215 188 179 175 23 258 194 271 250 186 183 200 217 241 244 266 280 282 280 240 200 199 192 193 210 220 212 210 227 228 218 228 242 236 217 221 217 204 200 200 201 202 201 200 198 196 193 189 192 193 192 190 190 188 187 187 188 190 191 192 193 194 193 194 198 201 206 214 224 241 256 267 275 278 282 282 283 286 286
117 236 238 120 19 189 191 202 198 192 170 162 195 185 184 207 278 292 248 225 246 245 254 265 270 273 262 128 168 177 185 203 204 201 210 220 228 228 228 232 225 220 227 222 207 200 200 201 200 199 198 194 190 188 188 191 190 187 187 187 186 185 185 187 189 190 190 191 192 193 193 197 201 206 217 230 246 260 270 277 281 283 284 287 292 292
168 211 226 209 209 224 224 206 205 213 175 174 190 185 186 186 166 222 232 218 210 235 237 236 256 268 266 108 137 154 177 200 184 192 210 208 218 227 228 227 218 211 218 218 212 201 196 197 194 193 193 188 187 189 188 187 185 185 186 185 185 185 185 186 188 188 190 190 191 193 194 197 202 207 219 233 248 262 272 279 282 284 288 292 293 292
171 162 217 231 237 234 243 29 327 296 230 202 220 198 196 191 181 202 222 217 188 228 244 243 260 267 255 105 155 190 181 193 174 185 201 196 207 216 219 222 219 217 220 215 209 201 194 195 190 189 191 191 191 190 185 184 184 184 184 183 184 184 184 186 188 187 189 190 191 193 195 198 203 210 221 234 248 262 271 277 281 285 290 292 291 290
106 130 213 243 263 254 143 83 63 301 181 214 240 218 199 201 202 208 226 235 203 222 234 227 246 260 261 113 238 238 181 200 192 187 198 195 204 213 211 210 209 216 223 217 212 205 191 189 188 188 193 194 193 189 184 184 184 181 181 183 183 183 184 185 186 187 188 189 191 194 196 200 204 211 220 232 245 259 268 276 282 286 287 286 288 289
176 202 201 225 253 254 249 215 188 205 201 216 236 210 198 207 212 228 321 266 242 237 235 232 244 253 251 168 241 230 112 251 242 194 226 227 220 223 214 206 206 209 215 214 208 202 195 193 193 196 198 196 193 190 185 183 182 179 180 183 183 182 183 184 184 186 187 189 191 194 197 200 204 210 217 228 242 255 266 274 280 281 281 282 287 291
182 196 186 209 228 227 236 239 210 165 194 233 258 201 198 205 207 214 230 223 236 240 235 234 249 256 265 268 260 227 137 257 244 171 237 250 243 246 239 225 219 214 216 214 203 195 199 202 202 201 199 197 193 189 186 182 179 178 178 181 183 182 181 182 183 184 186 188 190 192 195 197 201 206 211 221 233 247 259 268 273 275 279 285 290 297
172 197 195 214 228 225 234 248 252 110 153 207 221 197 198 210 210 211 223 228 233 239 231 235 246 258 268 273 272 266 250 259 254 218 223 230 223 228 234 239 236 227 221 216 206 200 204 207 207 203 198 196 193 188 185 183 179 176 176 178 181 182 181 181 182 183 186 187 188 190 193 195 197 201 205 214 224 238 252 262 270 276 283 291 296 303
192 223 213 222 233 232 239 251 253 227 192 203 206 199 202 210 211 215 227 230 227 239 243 240 245 256 263 267 270 270 263 262 267 266 261 255 232 203 212 230 234 231 226 220 212 208 212 211 205 203 199 194 190 187 186 184 179 177 176 177 179 180 180 180 181 182 184 186 187 189 190 191 193 195 200 208 217 233 247 259 270 278 288 297 303 307
208 240 231 234 243 242 245 253 255 252 244 233 229 226 220 216 212 217 229 233 224 231 243 245 249 256 259 258 260 263 264 263 268 271 272 272 260 198 207 229 235 230 220 218 216 212 215 215 204 199 197 191 188 187 185 182 178 175 175 177 179 180 180 180 181 181 183 184 186 187 187 188 189 192 198 203 213 229 242 256 269 281 294 304 308 311
212 247 246 252 260 257 254 258 259 261 263 260 258 253 244 236 226 222 235 238 229 236 246 253 258 260 260 257 258 266 275 273 274 277 279 279 274 263 258 260 261 253 226 209 214 213 212 212 205 196 191 188 189 187 184 181 178 175 174 176 178 179 179 181 180 181 183 183 184 185 184 184 187 189 193 198 208 223 236 253 268 285 302 309 314 315
232 249 255 259 263 257 254 255 257 259 262 263 264 259 248 246 241 234 240 241 237 245 252 253 259 261 256 257 265 277 278 276 277 278 278 277 275 275 273 270 270 269 258 218 209 212 210 207 201 193 191 193 191 186 183 181 177 174 173 175 177 178 179 180 179 179 181 182 182 183 182 183 185 186 190 196 205 218 232 250 267 293 310 313 318 319
229 246 250 250 254 251 246 248 251 255 260 265 262 250 245 246 245 241 242 244 243 251 255 253 253 252 252 259 267 267 267 270 273 272 271 271 272 275 273 268 270 274 273 256 228 209 202 202 199 197 197 194 188 185 183 178 172 171 172 175 177 177 177 178 178 178 180 180 180 181 181 182 183 184 189 195 204 216 229 248 272 304 311 313 319 319
213 232 239 234 242 248 245 246 253 259 262 254 237 238 242 247 250 250 250 250 246 246 252 254 250 251 257 264 264 262 263 265 265 266 268 270 275 280 275 271 274 278 277 273 258 216 198 202 201 197 195 188 185 187 183 176 172 173 175 175 175 175 175 175 177 178 178 179 180 180 181 182 181 183 189 195 204 213 224 248 278 309 309 312 320 317
213 221 235 230 235 249 249 250 253 244 237 235 232 234 239 242 245 246 249 251 250 247 252 258 260 260 261 260 260 262 263 262 265 269 270 273 281 283 276 274 276 277 276 274 262 220 201 205 199 193 189 185 184 182 178 175 174 174 175 173 172 172 173 173 174 177 178 178 179 180 181 182 181 183 189 194 201 209 216 241 287 311 309 311 317 314
221 222 229 225 231 248 248 243 238 230 231 237 233 230 235 240 245 250 254 256 257 256 257 257 258 258 261 262 263 265 265 267 274 274 271 273 276 272 271 273 273 272 274 277 265 230 204 191 186 187 184 182 178 173 170 172 173 172 171 170 170 170 171 172 173 176 177 177 179 181 181 181 181 184 187 190 197 204 208 236 299 307 305 311 313 311
225 226 227 225 229 235 222 216 226 237 244 214 211 227 237 244 248 251 253 252 249 252 255 255 255 258 262 265 267 268 271 277 280 273 272 272 253 246 254 262 266 268 272 276 262 236 208 184 185 187 181 178 175 172 171 172 172 170 167 168 170 170 170 171 172 174 176 177 180 182 182 182 182 183 184 188 195 195 194 231 294 305 306 315 319 317
221 224 225 226 222 221 226 224 230 260 285 180 204 225 229 229 234 240 247 243 234 245 251 250 253 257 259 263 268 271 276 285 280 273 273 248 202 224 241 249 261 271 274 277 258 227 201 190 191 186 178 174 172 172 172 171 170 167 164 167 168 168 168 169 170 173 176 179 182 182 183 183 183 183 184 187 191 188 181 222 299 314 309 321 326 323
218 218 220 225 217 213 231 234 230 244 237 210 219 231 234 235 234 235 248 236 214 239 247 246 250 255 257 262 264 266 276 283 270 273 274 200 188 219 237 242 254 264 258 226 174 178 179 182 182 177 171 168 169 172 172 169 167 165 163 165 166 165 166 168 170 174 178 181 183 183 183 182 182 184 185 185 183 178 175 224 305 328 331 337 331 322
220 217 218 229 229 218 231 237 227 231 228 210 220 235 245 247 233 164 251 240 221 240 246 247 251 253 253 258 259 259 267 261 258 269 266 172 183 215 220 221 231 225 211 187 173 171 162 158 159 162 163 163 167 171 170 168 167 165 162 164 166 164 164 168 173 177 179 181 182 182 181 181 182 184 185 183 177 169 167 223 356 5 356 347 336 324
218 217 216 226 230 224 231 239 236 239 229 190 212 233 243 233 169 176 247 238 228 239 243 243 250 251 248 253 256 251 246 240 246 260 249 163 176 208 197 206 207 185 181 181 171 160 152 151 152 157 163 166 168 170 169 168 167 165 164 165 165 163 166 171 174 176 177 179 181 181 180 180 182 184 183 181 174 160 141 66 34 20 0 347 338 328
212 210 213 221 225 223 229 236 239 238 212 187 215 228 207 142 150 210 233 228 229 239 239 236 245 249 247 248 247 237 238 235 236 246 233 156 174 200 188 197 190 175 173 169 162 154 149 153 156 158 166 169 168 168 169 168 167 166 165 164 163 166 170 171 172 173 174 176 177 178 178 178 179 180 180 178 170 156 135 82 39 13 358 346 334 329
202 204 211 217 222 225 228 233 243 243 198 192 220 219 161 154 200 224 229 235 239 242 240 235 239 243 243 241 236 233 239 237 234 235 220 194 194 186 174 171 164 160 153 152 158 155 149 151 153 153 162 168 168 168 168 168 168 167 166 163 163 167 167 167 168 170 172 173 174 174 175 175 175 175 172 172 171 162 151 46 14 4 353 342 334 334
188 197 209 204 208 227 231 225 236 240 182 191 215 215 175 199 227 231 232 239 239 239 243 241 239 242 243 238 233 232 236 238 237 233 222 211 198 175 176 176 166 163 157 154 167 166 156 152 153 153 159 165 166 167 168 169 169 167 166 162 161 163 164 165 168 168 169 169 170 170 171 171 171 170 166 167 169 159 164 297 352 2 352 344 343 342
190 195 216 199 189 212 224 214 219 231 206 196 206 211 204 212 224 232 238 241 237 235 240 242 241 242 241 240 239 237 237 241 242 236 227 217 197 179 181 175 164 164 163 165 174 169 160 150 143 150 158 163 166 168 171 171 167 163 163 161 160 162 163 164 166 166 165 166 166 166 168 168 166 167 165 163 162 157 163 239 8 14 1 353 351 340
202 206 224 223 207 211 222 219 217 228 223 206 207 216 222 222 225 232 239 244 244 240 238 243 246 244 241 240 242 243 241 242 242 235 226 218 202 182 174 172 168 163 163 167 169 169 167 159 148 145 153 163 167 169 171 171 165 159 158 160 161 163 163 163 165 164 163 164 164 165 166 164 161 164 167 164 159 158 162 95 32 25 14 3 351 328
233 235 239 240 238 237 234 230 227 229 229 220 214 220 227 229 230 233 238 244 248 246 244 244 246 247 243 236 233 238 240 239 241 239 233 225 210 184 170 174 168 158 161 165 165 169 166 157 149 141 142 158 166 168 169 170 166 161 160 163 165 166 165 164 163 163 162 163 163 164 163 160 157 161 165 164 161 162 164 110 45 33 23 4 329 313
280 271 264 264 267 261 247 233 232 235 234 228 222 225 232 235 236 234 235 239 242 245 248 249 249 250 247 224 207 226 239 241 244 244 238 228 213 193 184 182 170 165 171 168 164 165 161 152 152 151 142 155 166 166 166 167 166 164 164 166 167 167 166 164 162 161 161 161 161 162 160 158 159 161 161 159 158 159 159 119 50 39 35 355 293 306
292 292 282 276 270 268 271 276 273 267 262 255 244 235 234 238 237 233 231 235 238 241 246 249 251 255 253 240 229 236 245 249 248 246 241 231 219 206 197 189 175 168 170 166 164 165 162 157 162 162 153 157 164 164 163 164 165 166 166 166 168 167 164 163 162 161 161 161 161 160 158 158 161 160 158 156 154 155 157 134 70 45 34 258 267 290
308 302 292 287 278 275 281 289 293 292 285 279 273 264 251 251 253 249 246 246 246 249 251 250 251 252 252 250 248 246 248 251 251 249 244 233 225 217 200 190 179 166 165 170 171 171 170 166 162 158 153 159 162 163 161 162 164 166 165 165 167 166 163 161 161 160 160 160 159 157 156 159 161 159 155 150 147 152 161 148 96 55 37 278 277 293
283 270 263 269 271 268 269 269 268 274 277 278 280 282 284 294 298 293 283 275 269 267 266 263 262 260 254 252 253 253 254 255 253 250 244 235 233 224 199 184 176 170 171 172 171 172 174 170 165 160 154 160 163 163 160 160 162 164 165 165 166 165 163 160 158 157 158 158 157 156 156 157 157 157 154 145 140 139 140 143 135 59 20 299 294 302
252 255 252 256 260 262 269 275 277 278 280 284 291 297 308 320 310 298 294 289 279 274 276 278 279 278 274 270 264 258 258 260 261 260 254 245 239 223 196 183 179 177 174 166 165 172 175 170 167 163 159 164 165 162 158 158 160 162 165 164 165 166 166 162 158 157 158 159 157 157 159 158 155 154 151 143 137 128 115 113 117 133 164 255 298 310